This demonstration page uses our WeatherBlox Daily Observations layout. Learn more.

Left ArrowRight Arrow

39.92423, -83.80882

Hourly Observations for March 11, 2022

Temp ( °F °C ) Dew Point ( °F °C ) Humidity (%) Winds ( mph kmh ) Pressure ( in mb ) Visibility ( mi km ) Precip ( " mm )
12:56 am 00:56 Clear 30 -1.1 28 -2.2 92 92 ESE 7 11 30.06 1018 10 16 0.00 0.00
1:56 am 01:56 Mostly Clear 32 0 29 -1.7 88 88 E 5 7 30.06 1018 10 16 0.00 0.00
2:56 am 02:56 Mostly Clear 32 0 30 -1.1 92 92 ESE 6 9 30.04 1017 10 16 0.00 0.00
3:56 am 03:56 Partly Cloudy 32 0 30 -1.1 92 92 ESE 5 7 30.03 1017 10 16 0.00 0.00
4:56 am 04:56 Clear 32 0 30 -1.1 92 92 ESE 5 7 30.01 1016 10 16 0.00 0.00
5:56 am 05:56 Mostly Clear 32 0 30 -1.1 92 92 SSE 5 7 30.00 1016 10 16 0.00 0.00
6:56 am 06:56 Mostly Cloudy 35 1.7 31 -0.6 85 85 SSE 7 11 30.00 1016 9 14 0.00 0.00
7:56 am 07:56 Mostly Cloudy 36 2.2 32 0 86 86 Calm 29.99 1016 9 14 0.00 0.00
8:56 am 08:56 Mostly Cloudy 41 5 35 1.7 79 79 SSW 3 6 29.98 1015 9 14 0.00 0.00
9:56 am 09:56 Cloudy 46 7.8 34 1.1 63 63 SW 12 19 29.97 1015 10 16 0.00 0.00
10:56 am 10:56 Mostly Cloudy 49 9.4 34 1.1 56 56 SW 12 19 29.95 1014 10 16 0.00 0.00
11:56 am 11:56 Partly Cloudy 50 10 36 2.2 59 59 W 12 19 29.95 1014 10 16 0.00 0.00
12:56 pm 12:56 Mostly Cloudy 47 8.3 36 2.2 66 66 NW 12 19 29.94 1014 10 16 0.00 0.00
1:56 pm 13:56 Cloudy 42 5.6 35 1.7 76 76 NW 13 20 29.94 1014 10 16 0.00 0.00
2:44 pm 14:44 Cloudy 37 3 36 2 93 93 NW 14 22 29.95 1014 10 16 0.00 0.00
2:56 pm 14:56 Cloudy 37 2.8 34 1.1 89 89 WNW 15 24 29.94 1014 10 16 0.00 0.00
3:18 pm 15:18 Cloudy with Light Rain 37 3 34 1 87 87 NW 15 24 29.95 1014 10 16 0.00 0.00
3:56 pm 15:56 Cloudy with Light Snow 34 1.1 34 1.1 100 100 NW 14 22 29.95 1014 2 3 0.00 0.00
4:01 pm 16:01 Cloudy with Light Snow 34 1 34 1 100 100 NW 15 24 29.97 1015 1 2 0.00 0.00
4:11 pm 16:11 Cloudy with Light Snow 32 0 32 0 100 100 NW 16 26 29.97 1015 1 1 0.00 0.00
4:33 pm 16:33 Cloudy with Light Snow 30 -1 N/A N/A NW 18 30 29.98 1015 1 2 0.00 0.00
4:54 pm 16:54 Cloudy with Light Snow 30 -1 N/A N/A WNW 14 22 29.99 1016 1 1 0.00 0.00
4:56 pm 16:56 Cloudy with Light Snow 30 -1 N/A N/A NW 14 22 29.96 1015 1 1 0.00 0.00
5:13 pm 17:13 Cloudy with Light Snow 30 -1 N/A N/A WNW 16 26 29.99 1016 1 2 0.00 0.00
5:21 pm 17:21 Cloudy with Light Snow 30 -1 N/A N/A NW 14 22 29.99 1016 1 2 0.00 0.00
5:34 pm 17:34 Cloudy with Light Snow 30 -1 N/A N/A NW 13 20 29.99 1016 1 2 0.00 0.00
5:54 pm 17:54 Cloudy with Light Snow 30 -1 N/A N/A NW 14 22 29.98 1015 1 2 0.00 0.00
5:56 pm 17:56 Cloudy with Light Snow 30 -1 N/A N/A NW 12 19 29.96 1015 1 2 0.00 0.00
6:06 pm 18:06 Cloudy with Light Snow 30 -1 N/A N/A NW 14 22 29.98 1015 1 2 0.00 0.00
6:28 pm 18:28 Cloudy with Light Snow 30 -1 N/A N/A WNW 15 24 30.00 1016 1 1 0.00 0.00
6:48 pm 18:48 Cloudy with Snow 28 -2 N/A N/A NW 13 20 30.02 1017 1 1 0.00 0.00
6:56 pm 18:56 Cloudy with Light Snow 28 -2 N/A N/A WNW 14 22 29.99 1016 1 2 0.00 0.00
7:08 pm 19:08 Cloudy with Light Snow 28 -2 28 -2 100 100 WNW 12 19 30.02 1017 1 2 0.00 0.00
7:34 pm 19:34 Cloudy with Light Snow 28 -2 N/A N/A WNW 14 22 30.00 1016 2 3 0.00 0.00
7:53 pm 19:53 Cloudy with Light Snow 28 -2 N/A N/A WNW 13 20 29.98 1015 4 6 0.00 0.00
7:56 pm 19:56 Cloudy with Light Snow 28 -2.2 28 -2.2 100 100 WNW 14 22 29.95 1014 4 6 0.00 0.00
8:14 pm 20:14 Cloudy with Light Snow 28 -2 28 -2 100 100 NW 14 22 29.97 1015 8 13 0.00 0.00
8:25 pm 20:25 Cloudy 28 -2 27 -3 93 93 WNW 14 22 29.97 1015 9 14 0.00 0.00
8:56 pm 20:56 Cloudy with Light Snow 28 -2.2 24 -4.4 85 85 WNW 13 20 29.96 1015 10 16 0.00 0.00
9:56 pm 21:56 Cloudy with Light Snow 27 -2.8 21 -6.1 78 78 NW 14 22 29.96 1014 9 14 0.00 0.00
10:56 pm 22:56 Cloudy 27 -2.8 18 -7.8 69 69 WNW 15 24 29.94 1014 9 14 0.00 0.00
11:56 pm 23:56 Cloudy 25 -3.9 18 -7.8 75 75 NW 17 28 29.94 1014 10 16 0.00 0.00

Powered by AerisWeather